This is the latest recevied weather packets stored in our database for station/object KE8WAY. If no packets are shown the sender has not sent any weather packets the latest 10 day(s).
| Time | Temp. | Humidity | Pressure | Rain* | Wind** | Luminosity | Snow |
|---|---|---|---|---|---|---|---|
| 1778145074 | 6.67° C | 77% | 1011.6 hPa | 0 mm | - | 0 W/m² | - |
| 1778144770 | 6.67° C | 75% | 1011.5 hPa | 0 mm | - | 0 W/m² | - |
| 1778144468 | 6.11° C | 77% | 1011.8 hPa | 0 mm | - | 0 W/m² | - |
| 1778144164 | 6.11° C | 78% | 1011.8 hPa | 0 mm | - | 0 W/m² | - |
| 1778143861 | 6.11° C | 78% | 1011.9 hPa | 0 mm | - | 0 W/m² | - |
| 1778143558 | 6.67° C | 74% | 1012 hPa | 0 mm | - | 0 W/m² | - |
| 1778143255 | 7.78° C | 73% | 1012.1 hPa | 0 mm | - | 0 W/m² | - |
| 1778142951 | 7.22° C | 72% | 1011.9 hPa | 0 mm | - | 0 W/m² | - |
| 1778142648 | 7.22° C | 74% | 1011.9 hPa | 0 mm | - | 0 W/m² | - |
| 1778142344 | 7.22° C | 77% | 1011.9 hPa | 0 mm | - | 0 W/m² | - |
| 1778142035 | 7.78° C | 75% | 1012 hPa | 0 mm | - | 0 W/m² | - |
| 1778141731 | 7.78° C | 76% | 1011.8 hPa | 0 mm | - | 0 W/m² | - |
| 1778141429 | 7.78° C | 77% | 1012 hPa | 0 mm | - | 0 W/m² | - |
| 1778141124 | 7.78° C | 78% | 1012.1 hPa | 0 mm | - | 0 W/m² | - |
| 1778140821 | 7.78° C | 77% | 1012.1 hPa | 0 mm | - | 0 W/m² | - |
| 1778140516 | 7.22° C | 79% | 1012.2 hPa | 0 mm | - | 0 W/m² | - |
| 1778140213 | 7.22° C | 79% | 1012.2 hPa | 0 mm | - | 0 W/m² | - |
| 1778139910 | 7.22° C | 80% | 1012 hPa | 0 mm | - | 0 W/m² | - |
| 1778139609 | 7.22° C | 79% | 1011.9 hPa | 0 mm | - | 0 W/m² | - |
| 1778139304 | 7.22° C | 79% | 1012.1 hPa | 0 mm | - | 0 W/m² | - |
| 1778139001 | 7.22° C | 80% | 1011.9 hPa | 0 mm | - | 0 W/m² | - |
| 1778138698 | 7.78° C | 80% | 1012 hPa | 0 mm | - | 0 W/m² | - |
| 1778138395 | 7.78° C | 79% | 1012 hPa | 0 mm | - | 0 W/m² | - |
| 1778138092 | 7.78° C | 77% | 1011.9 hPa | 0 mm | - | 0 W/m² | - |
| 1778137789 | 7.78° C | 78% | 1011.9 hPa | 0 mm | - | 0 W/m² | - |
* Rain latest hour (hover to see other rain measurements)
** Current wind speed in m/s (hover to see current wind gust speed)